Location: Brno
(49.2000°N, 16.6330°E)
Time: 06:01:49
(UTC+02:00)

Cosmos 1603 - Visible Passes

Search period start: 01 October 2014 00:00
Search period end: 11 October 2014 00:00
Orbit: 830 x 862 km, 71.0° (Epoch: 29 September)

Date Brightness Start Highest point End Pass type
(mag) Time Alt. Az. Time Alt. Az. Time Alt. Az.
01 Oct 6.2 01:31:55 16° NE 01:31:55 16° NE 01:33:07 10° NE visible
01 Oct 5.2 03:13:49 30° N 03:13:49 30° N 03:17:16 10° NNE visible
01 Oct 5.9 04:55:43 10° NW 04:57:52 12° NNW 05:00:05 10° N visible
02 Oct 6.3 01:18:31 14° NE 01:18:31 14° NE 01:19:17 10° NE visible
02 Oct 5.4 03:00:25 27° N 03:00:25 27° N 03:03:28 10° NNE visible
02 Oct 5.9 04:42:19 11° NW 04:44:01 12° NNW 04:46:19 10° N visible
03 Oct 6.5 01:05:05 12° NE 01:05:05 12° NE 01:05:28 10° NE visible
03 Oct 5.5 02:46:59 25° N 02:46:59 25° N 02:49:40 10° NNE visible
03 Oct 5.9 04:28:53 12° NW 04:30:10 12° NNW 04:32:33 10° N visible
04 Oct 5.7 02:33:33 23° N 02:33:33 23° N 02:35:52 10° NNE visible
04 Oct 5.9 04:15:26 12° NW 04:16:19 13° NNW 04:18:46 10° N visible
05 Oct 5.9 02:20:06 21° N 02:20:06 21° N 02:22:04 10° NNE visible
05 Oct 5.9 04:01:59 13° NNW 04:02:28 13° NNW 04:05:00 10° N visible
06 Oct 6.1 02:06:38 19° N 02:06:38 19° N 02:08:16 10° NNE visible
06 Oct 6.0 03:48:32 13° NNW 03:48:37 13° NNW 03:51:14 10° N visible
07 Oct 6.2 01:53:10 17° NNE 01:53:10 17° NNE 01:54:28 10° NNE visible
07 Oct 6.0 03:35:04 13° NNW 03:35:04 13° NNW 03:37:27 10° N visible
08 Oct 6.3 01:39:41 15° NNE 01:39:41 15° NNE 01:40:40 10° NNE visible
08 Oct 6.1 03:21:35 13° NNW 03:21:35 13° NNW 03:23:41 10° N visible
09 Oct 6.5 01:26:13 13° NNE 01:26:13 13° NNE 01:26:51 10° NNE visible
09 Oct 6.1 03:08:06 13° NNW 03:08:06 13° NNW 03:09:54 10° N visible
10 Oct 6.6 01:12:44 12° NNE 01:12:44 12° NNE 01:13:03 10° NNE visible
10 Oct 6.2 02:54:37 13° NNW 02:54:37 13° NNW 02:56:07 10° N visible
10 Oct 6.2 06:25:04 10° N 06:27:31 13° NNE 06:29:58 10° NE visible
